This demonstration page uses our WeatherBlox Daily Observations layout. Learn more.

Left ArrowRight Arrow

39.08367, -84.50855

Hourly Observations for September 2, 2017

Temp ( °F °C ) Dew Point ( °F °C ) Humidity (%) Winds ( mph kmh ) Pressure ( in mb ) Visibility ( mi km ) Precip ( " mm )
12:53 am 00:53 Cloudy with Light Rain 55 13 N/A N/A NNE 10 17 29.93 1014 9 14 0.07 1.78
1:53 am 01:53 Cloudy 55 13 N/A N/A NE 10 17 29.93 1014 10 16 N/A
2:53 am 02:53 Cloudy with Light Rain 55 13 N/A N/A NE 8 13 29.92 1013 10 16 0.01 0.25
3:53 am 03:53 Cloudy with Light Rain 55 13 N/A N/A NE 10 17 29.91 1013 7 11 N/A
4:25 am 04:25 Cloudy with Light Rain 55 13 N/A N/A NNE 6 9 29.94 1014 4 6 0.01 0.25
4:53 am 04:53 Cloudy with Light Rain 55 13 N/A N/A NNE 9 15 29.91 1013 3 5 0.04 1.02
5:53 am 05:53 Cloudy with Light Rain 55 13 N/A N/A NNE 5 7 29.92 1013 5 8 0.02 0.51
6:53 am 06:53 Cloudy 55 12.8 55 12.8 100 100 NNE 6 9 29.93 1014 10 16 0.01 0.25
7:53 am 07:53 Cloudy 56 13.3 55 12.8 97 97 NNE 5 7 29.95 1014 10 16 N/A
8:53 am 08:53 Cloudy with Mist and Fog 56 13.3 55 12.8 97 97 NNE 6 9 29.96 1015 4 6 N/A
9:29 am 09:29 Cloudy with Light Rain 57 13.9 56 13.3 96 96 N 6 9 29.97 1015 2 3 N/A
9:53 am 09:53 Cloudy with Light Rain 57 13.9 56 13.3 96 96 N 3 6 29.98 1015 2 3 0.01 0.25
10:26 am 10:26 Cloudy 59 15 57 13.9 93 93 E 3 6 29.94 1014 8 13 N/A
10:53 am 10:53 Cloudy 60 15.6 56 13.3 86 86 NE 3 6 29.97 1015 10 16 N/A
11:53 am 11:53 Cloudy 60 15.6 57 13.9 90 90 N N/A 29.98 1015 10 16 N/A
12:08 pm 12:08 Cloudy 61 16.1 58 14.4 90 90 N N/A 29.97 1015 10 16 N/A
12:53 pm 12:53 Cloudy with Light Rain 61 16.1 59 15 93 93 N N/A 29.99 1016 3 5 N/A
1:12 pm 13:12 Cloudy with Light Rain 61 16.1 59 15 93 93 N N/A 29.97 1015 2 2 0.01 0.25
1:53 pm 13:53 Cloudy with Mist and Fog 62 16.7 60 15.6 93 93 W 6 9 29.99 1016 2 2 0.02 0.51
1:58 pm 13:58 Cloudy with Mist and Fog 61 16.1 60 15.6 97 97 W 6 9 29.97 1015 4 6 N/A
2:44 pm 14:44 Cloudy with Light Rain 62 16.7 59 15 90 90 WNW 7 11 29.97 1015 3 4 N/A
2:53 pm 14:53 Cloudy with Light Rain 61 16.1 60 15.6 97 97 W 7 11 29.99 1016 2 3 N/A
3:21 pm 15:21 Cloudy with Mist and Fog 61 16.1 60 15.6 97 97 WNW 7 11 29.97 1015 N/A N/A
3:53 pm 15:53 Cloudy with Light Rain 61 16.1 60 15.6 97 97 NW 5 7 29.99 1016 3 4 N/A
4:04 pm 16:04 Cloudy with Mist and Fog 62 16.7 60 15.6 93 93 N N/A 29.97 1015 3 5 0.01 0.25
4:53 pm 16:53 Cloudy 63 17.2 59 15 87 87 WNW 5 7 29.98 1015 10 16 0.01 0.25
5:49 pm 17:49 Cloudy 63 17 59 15 88 88 NW 6 9 29.97 1015 10 16 N/A
5:53 pm 17:53 Cloudy 62 16.7 59 15 90 90 NW 5 7 30.00 1016 10 16 N/A
6:53 pm 18:53 Cloudy with Light Rain 62 16.7 59 15 90 90 WNW 5 7 30.01 1016 4 6 N/A
7:08 pm 19:08 Cloudy with Mist and Fog 61 16.1 60 15.6 97 97 W 3 6 29.97 1015 3 4 N/A
7:27 pm 19:27 Cloudy 61 16.1 60 15.6 97 97 SW 3 6 29.97 1015 7 11 N/A
7:53 pm 19:53 Cloudy 61 16.1 60 15.6 97 97 SW 3 6 30.02 1017 7 11 N/A
8:53 pm 20:53 Cloudy 61 16.1 60 15.6 97 97 S 5 7 30.01 1016 7 11 N/A
9:53 pm 21:53 Cloudy 61 16.1 60 15.6 97 97 SW 6 9 30.02 1017 9 14 N/A
10:53 pm 22:53 Cloudy 61 16.1 60 15.6 97 97 SSW 7 11 30.04 1017 10 16 N/A
11:53 pm 23:53 Mostly Cloudy 60 15.6 58 14.4 93 93 S 7 11 30.03 1017 10 16 N/A

Powered by AerisWeather